Location: Hermaringen
(48.5952°N, 10.2585°E)
Time: 09:29:37
(UTC+00:00)

Injun/Solrad 3 - Pass Details

Date: 24 February 2026
Orbit: 872 x 984 km, 66.8° (Epoch: 9 March)

Event Time Altitude Azimuth Distance (km) Brightness Sun altitude
Rises 19:21:51 0° 314° (NW) 3,597 11.9 -24.9°
Reaches altitude 10° 19:25:07 10° 297° (WNW) 2,669 11.3 -25.4°
Maximum altitude 19:29:13 19° 255° (WSW) 2,130 10.4 -26.1°
Drops below altitude 10° 19:33:22 10° 214° (SW) 2,703 10.5 -26.7°
Sets 19:36:43 0° 197° (SSW) 3,659 11.0 -27.3°
